| time (UTC) | temp F | wind direction | speed MPH | gust MPH | rain 1hr in | rain 24hr in | rain mn in | humidity % | barometer mb |
| 20260905125842 | 53 | 313 | 9.0 | 11.0 | 0.00 | 0.00 | 0.00 | 61 | 1008.4 |
| 20260905125643 | 53 | 322 | 5.0 | 6.0 | 0.00 | 0.00 | 0.00 | 63 | 1008.4 |
| 20260905125342 | 53 | 305 | 2.0 | 7.0 | 0.00 | 0.00 | 0.00 | 62 | 1008.4 |
| 20260905124842 | 53 | 295 | 7.0 | 7.0 | 0.00 | 0.00 | 0.00 | 64 | 1008.3 |
| 20260905124544 | 53 | 293 | 5.0 | 7.0 | 0.00 | 0.00 | 0.00 | 66 | 1008.2 |
| 20260905124342 | 52 | 270 | 0.0 | 1.0 | 0.00 | 0.00 | 0.00 | 68 | 1008.3 |
| 20260905123842 | 52 | 352 | 0.0 | 0.0 | 0.00 | 0.00 | 0.00 | 65 | 1008.2 |
| 20260905123443 | 52 | 352 | 0.0 | 3.0 | 0.00 | 0.00 | 0.00 | 65 | 1008.2 |
| 20260905123342 | 52 | 338 | 0.0 | 3.0 | 0.00 | 0.00 | 0.00 | 66 | 1008.2 |
| 20260905122842 | 51 | 268 | 0.0 | 2.0 | 0.00 | 0.00 | 0.00 | 69 | 1008.1 |
| 20260905122342 | 51 | 292 | 0.0 | 1.0 | 0.00 | 0.00 | 0.00 | 70 | 1008.1 |
| 20260905121842 | 50 | 322 | 0.0 | 0.0 | 0.00 | 0.00 | 0.00 | 70 | 1008.1 |
| 20260905121342 | 50 | 315 | 0.0 | 0.0 | 0.00 | 0.00 | 0.00 | 70 | 1008.1 |
| 20260905121243 | 50 | 315 | 0.0 | 2.0 | 0.00 | 0.00 | 0.00 | 70 | 1008.0 |
| 20260905120842 | 50 | 315 | 0.0 | 2.0 | 0.00 | 0.00 | 0.00 | 70 | 1008.0 |
| 20260905120342 | 50 | 277 | 0.0 | 7.0 | 0.00 | 0.00 | 0.00 | 70 | 1007.9 |
| 20260905120143 | 50 | 317 | 3.0 | 7.0 | 0.00 | 0.00 | 0.00 | 70 | 1007.9 |
| 20260905115842 | 50 | 313 | 0.0 | 4.0 | 0.00 | 0.00 | 0.00 | 71 | 1007.9 |
| 20260905115342 | 50 | 306 | 1.0 | 6.0 | 0.00 | 0.00 | 0.00 | 68 | 1007.8 |
| 20260905115043 | 51 | 330 | 1.0 | 6.0 | 0.00 | 0.00 | 0.00 | 67 | 1007.6 |
| 20260905114842 | 51 | 302 | 2.0 | 5.0 | 0.00 | 0.00 | 0.00 | 65 | 1007.6 |
| 20260905114342 | 52 | 147 | 1.0 | 3.0 | 0.00 | 0.00 | 0.00 | 65 | 1007.5 |
| 20260905113943 | 51 | 4 | 0.0 | 4.0 | 0.00 | 0.00 | 0.00 | 64 | 1007.5 |
| 20260905113842 | 51 | 4 | 0.0 | 4.0 | 0.00 | 0.00 | 0.00 | 64 | 1007.5 |
| 20260905113342 | 51 | 323 | 0.0 | 3.0 | 0.00 | 0.00 | 0.00 | 63 | 1007.5 |
| 20260905112842 | 51 | 315 | 0.0 | 2.0 | 0.00 | 0.00 | 0.00 | 65 | 1007.5 |
| 20260905112342 | 51 | 54 | 0.0 | 2.0 | 0.00 | 0.00 | 0.00 | 68 | 1007.4 |
| 20260905111842 | 50 | 2 | 1.0 | 4.0 | 0.00 | 0.00 | 0.00 | 67 | 1007.4 |
| 20260905111743 | 50 | 337 | 0.0 | 4.0 | 0.00 | 0.00 | 0.00 | 67 | 1007.4 |
| 20260905111342 | 50 | 315 | 0.0 | 4.0 | 0.00 | 0.00 | 0.00 | 67 | 1007.4 |
| 20260905110842 | 50 | 309 | 0.0 | 5.0 | 0.00 | 0.00 | 0.00 | 69 | 1007.4 |
| 20260905110643 | 50 | 336 | 0.0 | 5.0 | 0.00 | 0.00 | 0.00 | 71 | 1007.3 |
| 20260905110342 | 50 | 299 | 0.0 | 4.0 | 0.00 | 0.00 | 0.00 | 70 | 1007.3 |
| 20260905105842 | 50 | 334 | 0.0 | 2.0 | 0.00 | 0.00 | 0.00 | 70 | 1007.2 |
| 20260905105543 | 50 | 277 | 0.0 | 6.0 | 0.00 | 0.00 | 0.00 | 67 | 1007.1 |
| 20260905105342 | 50 | 277 | 0.0 | 6.0 | 0.00 | 0.00 | 0.00 | 66 | 1007.1 |
| 20260905104842 | 50 | 358 | 0.0 | 8.0 | 0.00 | 0.00 | 0.00 | 67 | 1007.0 |
| 20260905104443 | 51 | 330 | 3.0 | 4.0 | 0.00 | 0.00 | 0.00 | 70 | 1006.9 |
| 20260905104342 | 51 | 277 | 2.0 | 4.0 | 0.00 | 0.00 | 0.00 | 70 | 1007.0 |
| 20260905103842 | 50 | 333 | 0.0 | 6.0 | 0.00 | 0.00 | 0.00 | 71 | 1007.0 |
| 20260905103342 | 50 | 277 | 0.0 | 0.0 | 0.00 | 0.00 | 0.00 | 70 | 1006.9 |
| 20260905102842 | 50 | 277 | 0.0 | 8.0 | 0.00 | 0.00 | 0.00 | 69 | 1006.7 |
| 20260905102342 | 50 | 322 | 3.0 | 7.0 | 0.00 | 0.00 | 0.00 | 70 | 1006.7 |
| 20260905102243 | 50 | 317 | 3.0 | 7.0 | 0.00 | 0.00 | 0.00 | 69 | 1006.6 |
| 20260905101842 | 50 | 319 | 2.0 | 3.0 | 0.00 | 0.00 | 0.00 | 70 | 1006.6 |
| 20260905101342 | 50 | 330 | 3.0 | 5.0 | 0.00 | 0.00 | 0.00 | 67 | 1006.5 |
| 20260905101143 | 50 | 326 | 1.0 | 5.0 | 0.00 | 0.00 | 0.00 | 71 | 1006.5 |
| 20260905100842 | 50 | 298 | 3.0 | 3.0 | 0.00 | 0.00 | 0.00 | 77 | 1006.5 |
| 20260905100342 | 49 | 255 | 1.0 | 3.0 | 0.00 | 0.00 | 0.00 | 78 | 1006.4 |
| 20260905100043 | 49 | 277 | 0.0 | 6.0 | 0.00 | 0.00 | 0.00 | 77 | 1006.4 |
| 20260905095842 | 49 | 285 | 2.0 | 6.0 | 0.00 | 0.00 | 0.00 | 77 | 1006.5 |
| 20260905095342 | 49 | 293 | 2.0 | 6.0 | 0.00 | 0.00 | 0.00 | 77 | 1006.3 |
| 20260905094943 | 49 | 285 | 0.0 | 5.0 | 0.00 | 0.00 | 0.00 | 77 | 1006.3 |
| 20260905094842 | 49 | 299 | 1.0 | 5.0 | 0.00 | 0.00 | 0.00 | 76 | 1006.3 |
| 20260905094342 | 49 | 317 | 0.0 | 7.0 | 0.00 | 0.00 | 0.00 | 77 | 1006.2 |
| 20260905093842 | 49 | 300 | 0.0 | 0.0 | 0.00 | 0.00 | 0.00 | 77 | 1006.1 |
| 20260905093342 | 49 | 300 | 0.0 | 2.0 | 0.00 | 0.00 | 0.00 | 77 | 1006.1 |
| 20260905092842 | 50 | 313 | 2.0 | 5.0 | 0.00 | 0.00 | 0.00 | 77 | 1006.0 |
| 20260905092743 | 50 | 289 | 3.0 | 5.0 | 0.00 | 0.00 | 0.00 | 77 | 1006.0 |
| 20260905092342 | 49 | 202 | 1.0 | 4.0 | 0.00 | 0.00 | 0.00 | 78 | 1006.0 |
| 20260905091842 | 49 | 289 | 3.0 | 4.0 | 0.00 | 0.00 | 0.00 | 80 | 1006.0 |
| 20260905091643 | 48 | 243 | 0.0 | 1.0 | 0.00 | 0.00 | 0.00 | 81 | 1006.0 |
| 20260905091342 | 48 | 300 | 0.0 | 4.0 | 0.00 | 0.00 | 0.00 | 80 | 1006.0 |
| 20260905090842 | 47 | 309 | 0.0 | 6.0 | 0.00 | 0.00 | 0.00 | 80 | 1005.9 |
| 20260905090543 | 47 | 316 | 0.0 | 6.0 | 0.00 | 0.00 | 0.00 | 81 | 1005.9 |
| 20260905090342 | 47 | 305 | 0.0 | 3.0 | 0.00 | 0.00 | 0.00 | 81 | 1005.9 |
| 20260905085842 | 47 | 265 | 0.0 | 5.0 | 0.00 | 0.00 | 0.00 | 84 | 1005.7 |
| 20260905085443 | 46 | 271 | 2.0 | 2.0 | 0.00 | 0.00 | 0.00 | 86 | 1005.7 |
| 20260905085342 | 46 | 271 | 0.0 | 2.0 | 0.00 | 0.00 | 0.00 | 87 | 1005.7 |
| 20260905084842 | 45 | 284 | 2.0 | 3.0 | 0.00 | 0.00 | 0.00 | 88 | 1005.7 |
| 20260905084342 | 45 | 302 | 0.0 | 3.0 | 0.00 | 0.00 | 0.00 | 88 | 1005.6 |
| 20260905083842 | 45 | 275 | 1.0 | 2.0 | 0.00 | 0.00 | 0.00 | 90 | 1005.6 |
| 20260905083342 | 44 | 61 | 0.0 | 3.0 | 0.00 | 0.00 | 0.00 | 92 | 1005.6 |
| 20260905083243 | 44 | 61 | 0.0 | 3.0 | 0.00 | 0.00 | 0.00 | 92 | 1005.5 |
| 20260905082842 | 43 | 0 | 1.0 | 2.0 | 0.00 | 0.00 | 0.00 | 92 | 1005.5 |
| 20260905082342 | 43 | 338 | 0.0 | 2.0 | 0.00 | 0.00 | 0.00 | 92 | 1005.5 |
| 20260905082143 | 43 | 338 | 0.0 | 4.0 | 0.00 | 0.00 | 0.00 | 92 | 1005.4 |
| 20260905081842 | 43 | 21 | 1.0 | 4.0 | 0.00 | 0.00 | 0.00 | 93 | 1005.4 |
| 20260905081342 | 43 | 312 | 0.0 | 4.0 | 0.00 | 0.00 | 0.00 | 95 | 1005.4 |
| 20260905081043 | 43 | 7 | 1.0 | 4.0 | 0.00 | 0.00 | 0.00 | 94 | 1005.4 |
| 20260905080842 | 42 | 323 | 0.0 | 4.0 | 0.00 | 0.00 | 0.00 | 95 | 1005.4 |
| 20260905080342 | 42 | 296 | 1.0 | 3.0 | 0.00 | 0.01 | 0.00 | 95 | 1005.3 |
| 20260905075944 | 42 | 324 | 1.0 | 3.0 | 0.00 | 0.01 | 0.00 | 95 | 1005.3 |
| 20260905075842 | 42 | 236 | 0.0 | 3.0 | 0.00 | 0.01 | 0.00 | 95 | 1005.3 |
| 20260905075342 | 42 | 288 | 2.0 | 5.0 | 0.00 | 0.01 | 0.00 | 95 | 1005.3 |
| 20260905074842 | 42 | 291 | 1.0 | 3.0 | 0.00 | 0.01 | 0.00 | 95 | 1005.2 |
| 20260905074342 | 42 | 299 | 1.0 | 2.0 | 0.00 | 0.01 | 0.00 | 95 | 1005.2 |
| 20260905073842 | 42 | 309 | 2.0 | 2.0 | 0.00 | 0.01 | 0.00 | 95 | 1005.1 |
| 20260905073743 | 42 | 274 | 0.0 | 0.0 | 0.00 | 0.01 | 0.00 | 95 | 1005.1 |
| 20260905073342 | 42 | 274 | 0.0 | 0.0 | 0.00 | 0.01 | 0.00 | 95 | 1005.1 |
| 20260905072842 | 42 | 274 | 0.0 | 0.0 | 0.00 | 0.01 | 0.00 | 95 | 1005.0 |
| 20260905072643 | 42 | 274 | 0.0 | 0.0 | 0.00 | 0.01 | 0.00 | 95 | 1005.0 |
| 20260905072342 | 42 | 274 | 0.0 | 3.0 | 0.00 | 0.01 | 0.00 | 95 | 1005.0 |
| 20260905071842 | 42 | 322 | 0.0 | 2.0 | 0.00 | 0.01 | 0.00 | 95 | 1004.8 |
| 20260905071545 | 42 | 317 | 1.0 | 1.0 | 0.00 | 0.01 | 0.00 | 95 | 1004.8 |
| 20260905071342 | 42 | 299 | 0.0 | 1.0 | 0.00 | 0.01 | 0.00 | 95 | 1004.8 |
| 20260905070842 | 42 | 293 | 0.0 | 2.0 | 0.00 | 0.01 | 0.00 | 95 | 1004.7 |
| 20260905070444 | 42 | 302 | 1.0 | 2.0 | 0.00 | 0.01 | 0.00 | 96 | 1004.7 |
| 20260905070342 | 42 | 313 | 2.0 | 2.0 | 0.00 | 0.10 | 0.00 | 96 | 1004.7 |
| 20260905065842 | 42 | 53 | 0.0 | 0.0 | 0.00 | 0.10 | 0.00 | 96 | 1004.5 |
| 20260905065342 | 42 | 312 | 0.0 | 0.0 | 0.00 | 0.10 | 0.00 | 96 | 1004.5 |
| 20260905064842 | 42 | 312 | 0.0 | 0.0 | 0.00 | 0.10 | 0.00 | 96 | 1004.5 |
| 20260905064342 | 42 | 312 | 0.0 | 0.0 | 0.00 | 0.10 | 0.00 | 97 | 1004.5 |
| 20260905064244 | 42 | 312 | 0.0 | 0.0 | 0.00 | 0.10 | 0.00 | 97 | 1004.4 |
| 20260905063842 | 42 | 312 | 0.0 | 0.0 | 0.00 | 0.10 | 0.00 | 97 | 1004.4 |
| 20260905063342 | 42 | 312 | 0.0 | 0.0 | 0.00 | 0.10 | 0.00 | 97 | 1004.3 |
| 20260905063144 | 42 | 312 | 0.0 | 0.0 | 0.00 | 0.10 | 0.00 | 97 | 1004.3 |
| 20260905062842 | 42 | 312 | 0.0 | 0.0 | 0.00 | 0.10 | 0.00 | 97 | 1004.3 |
| 20260905062342 | 42 | 312 | 0.0 | 0.0 | 0.00 | 0.10 | 0.00 | 97 | 1004.2 |
| 20260905062044 | 42 | 312 | 0.0 | 3.0 | 0.00 | 0.10 | 0.00 | 97 | 1004.2 |
| 20260905061842 | 41 | 312 | 0.0 | 3.0 | 0.00 | 0.10 | 0.00 | 97 | 1004.2 |
| 20260905061342 | 42 | 71 | 0.0 | 0.0 | 0.00 | 0.10 | 0.00 | 97 | 1004.2 |
| 20260905060944 | 42 | 71 | 0.0 | 0.0 | 0.00 | 0.10 | 0.00 | 97 | 1004.1 |
| 20260905060842 | 42 | 71 | 0.0 | 0.0 | 0.00 | 0.10 | 0.00 | 97 | 1004.1 |
| 20260905060342 | 42 | 71 | 0.0 | 0.0 | 0.00 | 0.11 | 0.00 | 97 | 1003.9 |
| 20260905055842 | 42 | 71 | 0.0 | 0.0 | 0.00 | 0.11 | 0.00 | 97 | 1003.9 |
| 20260905055342 | 42 | 71 | 0.0 | 0.0 | 0.00 | 0.11 | 0.00 | 97 | 1003.9 |
| 20260905054843 | 42 | 71 | 0.0 | 0.0 | 0.00 | 0.11 | 0.00 | 97 | 1003.9 |
| 20260905054744 | 42 | 71 | 0.0 | 0.0 | 0.00 | 0.11 | 0.00 | 97 | 1003.9 |
| 20260905054343 | 42 | 71 | 0.0 | 0.0 | 0.00 | 0.11 | 0.00 | 97 | 1003.8 |
| 20260905053843 | 41 | 71 | 0.0 | 0.0 | 0.00 | 0.11 | 0.00 | 97 | 1003.7 |
| 20260905053644 | 41 | 71 | 0.0 | 0.0 | 0.00 | 0.11 | 0.00 | 97 | 1003.7 |
| 20260905053343 | 41 | 71 | 0.0 | 0.0 | 0.00 | 0.11 | 0.00 | 97 | 1003.8 |
| 20260905052843 | 41 | 71 | 0.0 | 0.0 | 0.00 | 0.11 | 0.00 | 97 | 1003.7 |
| 20260905052546 | 41 | 71 | 0.0 | 0.0 | 0.00 | 0.11 | 0.00 | 97 | 1003.7 |
| 20260905052343 | 41 | 71 | 0.0 | 0.0 | 0.00 | 0.11 | 0.00 | 97 | 1003.7 |
| 20260905051843 | 41 | 71 | 0.0 | 0.0 | 0.00 | 0.11 | 0.00 | 97 | 1003.7 |
| 20260905051444 | 41 | 71 | 0.0 | 0.0 | 0.00 | 0.11 | 0.00 | 97 | 1003.7 |
| 20260905051343 | 41 | 71 | 0.0 | 0.0 | 0.00 | 0.11 | 0.00 | 97 | 1003.7 |
| 20260905050843 | 41 | 71 | 0.0 | 0.0 | 0.00 | 0.11 | 0.00 | 97 | 1003.6 |
| 20260905050343 | 41 | 71 | 0.0 | 0.0 | 0.00 | 0.11 | 0.00 | 97 | 1003.6 |
| 20260905045843 | 41 | 71 | 0.0 | 0.0 | 0.00 | 0.11 | 0.00 | 97 | 1003.6 |
| 20260905045343 | 41 | 71 | 0.0 | 0.0 | 0.00 | 0.11 | 0.00 | 97 | 1003.6 |
| 20260905045244 | 41 | 71 | 0.0 | 0.0 | 0.00 | 0.11 | 0.00 | 97 | 1003.6 |
| 20260905044843 | 41 | 71 | 0.0 | 0.0 | 0.00 | 0.11 | 0.00 | 97 | 1003.6 |
| 20260905044343 | 41 | 71 | 0.0 | 0.0 | 0.00 | 0.11 | 0.00 | 97 | 1003.6 |
| 20260905044144 | 41 | 71 | 0.0 | 0.0 | 0.00 | 0.11 | 0.00 | 97 | 1003.5 |
| 20260905043843 | 41 | 71 | 0.0 | 0.0 | 0.00 | 0.11 | 0.00 | 97 | 1003.5 |
| 20260905043343 | 41 | 71 | 0.0 | 0.0 | 0.00 | 0.11 | 0.00 | 97 | 1003.5 |
| 20260905043044 | 41 | 71 | 0.0 | 0.0 | 0.00 | 0.11 | 0.00 | 96 | 1003.6 |
| 20260905042843 | 41 | 71 | 0.0 | 0.0 | 0.00 | 0.11 | 0.00 | 96 | 1003.5 |
| 20260905042343 | 41 | 71 | 0.0 | 0.0 | 0.00 | 0.11 | 0.00 | 97 | 1003.4 |
| 20260905041944 | 42 | 71 | 0.0 | 0.0 | 0.00 | 0.11 | 0.00 | 97 | 1003.4 |
| 20260905041843 | 42 | 71 | 0.0 | 0.0 | 0.00 | 0.11 | 0.00 | 97 | 1003.4 |
| 20260905041343 | 42 | 71 | 0.0 | 0.0 | 0.00 | 0.11 | 0.00 | 97 | 1003.4 |
| 20260905040843 | 42 | 71 | 0.0 | 0.0 | 0.00 | 0.11 | 0.00 | 97 | 1003.4 |
| 20260905040343 | 42 | 71 | 0.0 | 0.0 | 0.00 | 0.11 | 0.00 | 97 | 1003.4 |
| 20260905035843 | 42 | 71 | 0.0 | 0.0 | 0.00 | 0.11 | 0.00 | 97 | 1003.4 |
| 20260905035744 | 42 | 71 | 0.0 | 0.0 | 0.00 | 0.11 | 0.00 | 97 | 1003.4 |
| 20260905035343 | 42 | 71 | 0.0 | 0.0 | 0.00 | 0.11 | 0.00 | 97 | 1003.4 |
| 20260905034843 | 42 | 71 | 0.0 | 0.0 | 0.00 | 0.11 | 0.00 | 97 | 1003.4 |
| 20260905034644 | 42 | 71 | 0.0 | 0.0 | 0.00 | 0.11 | 0.00 | 97 | 1003.4 |
| 20260905034343 | 42 | 71 | 0.0 | 0.0 | 0.00 | 0.11 | 0.00 | 97 | 1003.4 |
| 20260905033843 | 42 | 71 | 0.0 | 0.0 | 0.00 | 0.11 | 0.00 | 96 | 1003.4 |
| 20260905033544 | 42 | 71 | 0.0 | 0.0 | 0.00 | 0.11 | 0.00 | 96 | 1003.4 |
| 20260905033343 | 42 | 71 | 0.0 | 0.0 | 0.00 | 0.11 | 0.00 | 96 | 1003.4 |
| 20260905032843 | 42 | 71 | 0.0 | 0.0 | 0.00 | 0.11 | 0.00 | 96 | 1003.4 |
| 20260905032444 | 42 | 71 | 0.0 | 0.0 | 0.00 | 0.11 | 0.00 | 96 | 1003.4 |
| 20260905032343 | 42 | 71 | 0.0 | 0.0 | 0.00 | 0.11 | 0.00 | 96 | 1003.4 |
| 20260905031843 | 42 | 71 | 0.0 | 0.0 | 0.00 | 0.11 | 0.00 | 96 | 1003.4 |
| 20260905031343 | 42 | 71 | 0.0 | 0.0 | 0.00 | 0.11 | 0.00 | 96 | 1003.3 |
| 20260905030843 | 42 | 71 | 0.0 | 0.0 | 0.00 | 0.11 | 0.00 | 95 | 1003.3 |
| 20260905030343 | 42 | 71 | 0.0 | 0.0 | 0.00 | 0.11 | 0.00 | 95 | 1003.3 |
| 20260905030244 | 42 | 71 | 0.0 | 0.0 | 0.00 | 0.11 | 0.00 | 95 | 1003.3 |
| 20260905025843 | 42 | 71 | 0.0 | 0.0 | 0.00 | 0.11 | 0.00 | 95 | 1003.3 |
| 20260905025343 | 42 | 71 | 0.0 | 0.0 | 0.00 | 0.11 | 0.00 | 95 | 1003.2 |
| 20260905025145 | 42 | 71 | 0.0 | 0.0 | 0.00 | 0.11 | 0.00 | 95 | 1003.2 |
| 20260905024843 | 42 | 71 | 0.0 | 0.0 | 0.00 | 0.11 | 0.00 | 95 | 1003.2 |
| 20260905024343 | 42 | 71 | 0.0 | 0.0 | 0.00 | 0.11 | 0.00 | 95 | 1003.2 |
| 20260905024044 | 42 | 71 | 0.0 | 0.0 | 0.00 | 0.11 | 0.00 | 95 | 1003.0 |
| 20260905023843 | 42 | 71 | 0.0 | 0.0 | 0.00 | 0.11 | 0.00 | 95 | 1003.2 |
| 20260905023343 | 42 | 71 | 0.0 | 0.0 | 0.00 | 0.11 | 0.00 | 95 | 1003.2 |
| 20260905022944 | 42 | 71 | 0.0 | 0.0 | 0.00 | 0.11 | 0.00 | 95 | 1003.0 |
| 20260905022843 | 42 | 71 | 0.0 | 0.0 | 0.00 | 0.11 | 0.00 | 95 | 1003.0 |
| 20260905022343 | 42 | 71 | 0.0 | 0.0 | 0.00 | 0.11 | 0.00 | 95 | 1003.0 |
| 20260905021843 | 42 | 71 | 0.0 | 0.0 | 0.00 | 0.11 | 0.00 | 95 | 1003.0 |
| 20260905021343 | 42 | 71 | 0.0 | 0.0 | 0.00 | 0.11 | 0.00 | 95 | 1002.9 |
| 20260905020843 | 42 | 71 | 0.0 | 0.0 | 0.00 | 0.11 | 0.00 | 95 | 1002.9 |
| 20260905020744 | 43 | 71 | 0.0 | 0.0 | 0.00 | 0.11 | 0.00 | 95 | 1002.9 |
| 20260905020343 | 43 | 71 | 0.0 | 0.0 | 0.00 | 0.11 | 0.00 | 95 | 1002.9 |
| 20260905015843 | 43 | 71 | 0.0 | 0.0 | 0.00 | 0.11 | 0.00 | 95 | 1002.9 |
| 20260905015644 | 43 | 71 | 0.0 | 0.0 | 0.00 | 0.11 | 0.00 | 95 | 1002.9 |
| 20260905015343 | 43 | 71 | 0.0 | 0.0 | 0.00 | 0.11 | 0.00 | 95 | 1002.9 |
| 20260905014843 | 43 | 71 | 0.0 | 0.0 | 0.00 | 0.11 | 0.00 | 95 | 1002.9 |
| 20260905014544 | 43 | 71 | 0.0 | 0.0 | 0.00 | 0.11 | 0.00 | 95 | 1002.9 |
| 20260905014343 | 43 | 71 | 0.0 | 0.0 | 0.00 | 0.11 | 0.00 | 95 | 1002.9 |
| 20260905013843 | 43 | 71 | 0.0 | 0.0 | 0.00 | 0.11 | 0.00 | 95 | 1002.8 |
| 20260905013444 | 43 | 71 | 0.0 | 0.0 | 0.00 | 0.11 | 0.00 | 95 | 1002.8 |
| 20260905013343 | 43 | 71 | 0.0 | 0.0 | 0.00 | 0.11 | 0.00 | 95 | 1002.8 |
| 20260905012843 | 43 | 71 | 0.0 | 0.0 | 0.00 | 0.11 | 0.00 | 95 | 1002.8 |
| 20260905012343 | 43 | 71 | 0.0 | 0.0 | 0.00 | 0.11 | 0.00 | 94 | 1002.8 |
| 20260905011843 | 43 | 71 | 0.0 | 0.0 | 0.00 | 0.11 | 0.00 | 94 | 1002.8 |
| 20260905011343 | 43 | 71 | 0.0 | 0.0 | 0.00 | 0.11 | 0.00 | 94 | 1002.9 |
| 20260905011244 | 43 | 71 | 0.0 | 0.0 | 0.00 | 0.11 | 0.00 | 94 | 1002.8 |
| 20260905010843 | 43 | 71 | 0.0 | 0.0 | 0.00 | 0.11 | 0.00 | 94 | 1002.8 |
| 20260905010343 | 43 | 71 | 0.0 | 0.0 | 0.00 | 0.11 | 0.00 | 94 | 1002.7 |
| 20260905010144 | 43 | 71 | 0.0 | 0.0 | 0.00 | 0.11 | 0.00 | 94 | 1002.8 |
| 20260905005843 | 43 | 71 | 0.0 | 0.0 | 0.00 | 0.11 | 0.00 | 94 | 1002.8 |
| 20260905005343 | 43 | 71 | 0.0 | 0.0 | 0.00 | 0.11 | 0.00 | 94 | 1002.8 |
| 20260905005044 | 43 | 71 | 0.0 | 0.0 | 0.00 | 0.11 | 0.00 | 94 | 1002.8 |
| 20260905004843 | 43 | 71 | 0.0 | 0.0 | 0.00 | 0.11 | 0.00 | 94 | 1002.8 |
| 20260905004343 | 43 | 71 | 0.0 | 0.0 | 0.00 | 0.11 | 0.00 | 94 | 1002.7 |
| 20260905003944 | 43 | 71 | 0.0 | 0.0 | 0.00 | 0.11 | 0.00 | 94 | 1002.7 |
| 20260905003843 | 43 | 71 | 0.0 | 0.0 | 0.00 | 0.11 | 0.00 | 93 | 1002.7 |
| 20260905003343 | 43 | 71 | 0.0 | 0.0 | 0.00 | 0.11 | 0.00 | 93 | 1002.7 |
| 20260905002843 | 43 | 71 | 0.0 | 0.0 | 0.00 | 0.11 | 0.00 | 93 | 1002.7 |
| 20260905002343 | 43 | 71 | 0.0 | 0.0 | 0.00 | 0.11 | 0.00 | 94 | 1002.6 |
| 20260905001843 | 43 | 71 | 0.0 | 0.0 | 0.00 | 0.11 | 0.00 | 93 | 1002.6 |
| 20260905001745 | 43 | 71 | 0.0 | 0.0 | 0.00 | 0.11 | 0.00 | 94 | 1002.6 |
| 20260905001343 | 43 | 71 | 0.0 | 0.0 | 0.00 | 0.11 | 0.00 | 93 | 1002.6 |
| 20260905000843 | 43 | 71 | 0.0 | 0.0 | 0.00 | 0.11 | 0.00 | 93 | 1002.6 |
| 20260905000644 | 43 | 71 | 0.0 | 0.0 | 0.00 | 0.11 | 0.00 | 93 | 1002.6 |
| 20260905000343 | 43 | 71 | 0.0 | 0.0 | 0.00 | 0.11 | 0.00 | 93 | 1002.6 |
| 20260904235843 | 43 | 71 | 0.0 | 0.0 | 0.00 | 0.11 | 0.00 | 93 | 1002.7 |
| 20260904235544 | 43 | 71 | 0.0 | 0.0 | 0.00 | 0.11 | 0.00 | 93 | 1002.6 |
| 20260904235343 | 43 | 71 | 0.0 | 0.0 | 0.00 | 0.11 | 0.00 | 93 | 1002.6 |
| 20260904234843 | 43 | 71 | 0.0 | 0.0 | 0.00 | 0.11 | 0.00 | 93 | 1002.5 |
| 20260904234444 | 43 | 71 | 0.0 | 0.0 | 0.00 | 0.11 | 0.00 | 93 | 1002.5 |
| 20260904234343 | 43 | 71 | 0.0 | 0.0 | 0.00 | 0.11 | 0.00 | 93 | 1002.5 |
| 20260904233843 | 43 | 71 | 0.0 | 0.0 | 0.00 | 0.11 | 0.00 | 93 | 1002.5 |
| 20260904233344 | 43 | 71 | 0.0 | 0.0 | 0.00 | 0.11 | 0.00 | 92 | 1002.4 |
| 20260904232843 | 43 | 71 | 0.0 | 0.0 | 0.00 | 0.11 | 0.00 | 92 | 1002.4 |
| 20260904232343 | 43 | 71 | 0.0 | 0.0 | 0.00 | 0.11 | 0.00 | 92 | 1002.4 |
| 20260904232244 | 43 | 71 | 0.0 | 0.0 | 0.00 | 0.11 | 0.00 | 92 | 1002.4 |
| 20260904231843 | 43 | 71 | 0.0 | 0.0 | 0.00 | 0.11 | 0.00 | 92 | 1002.4 |
| 20260904231343 | 43 | 71 | 0.0 | 0.0 | 0.00 | 0.11 | 0.00 | 92 | 1002.5 |
| 20260904231144 | 43 | 71 | 0.0 | 0.0 | 0.00 | 0.11 | 0.00 | 92 | 1002.4 |
| 20260904230843 | 43 | 71 | 0.0 | 0.0 | 0.00 | 0.11 | 0.00 | 92 | 1002.4 |
| 20260904230343 | 43 | 71 | 0.0 | 0.0 | 0.00 | 0.11 | 0.00 | 92 | 1002.4 |
| 20260904230044 | 43 | 71 | 0.0 | 0.0 | 0.00 | 0.11 | 0.00 | 92 | 1002.4 |
| 20260904225843 | 43 | 71 | 0.0 | 0.0 | 0.00 | 0.11 | 0.00 | 92 | 1002.4 |
| 20260904225343 | 43 | 71 | 0.0 | 0.0 | 0.00 | 0.11 | 0.00 | 92 | 1002.5 |
| 20260904224944 | 43 | 71 | 0.0 | 0.0 | 0.00 | 0.11 | 0.00 | 92 | 1002.5 |
| 20260904224843 | 43 | 71 | 0.0 | 0.0 | 0.00 | 0.11 | 0.00 | 92 | 1002.5 |
| 20260904224343 | 43 | 71 | 0.0 | 0.0 | 0.00 | 0.11 | 0.00 | 92 | 1002.5 |
| 20260904223843 | 43 | 71 | 0.0 | 0.0 | 0.00 | 0.11 | 0.00 | 91 | 1002.5 |
| 20260904223343 | 43 | 71 | 0.0 | 0.0 | 0.00 | 0.11 | 0.00 | 91 | 1002.5 |
| 20260904222843 | 43 | 71 | 0.0 | 0.0 | 0.00 | 0.11 | 0.00 | 91 | 1002.5 |
| 20260904222744 | 43 | 71 | 0.0 | 0.0 | 0.00 | 0.11 | 0.00 | 91 | 1002.6 |
| 20260904222343 | 43 | 71 | 0.0 | 0.0 | 0.00 | 0.11 | 0.00 | 91 | 1002.6 |
| 20260904221843 | 43 | 71 | 0.0 | 0.0 | 0.00 | 0.11 | 0.00 | 91 | 1002.6 |
| 20260904221644 | 43 | 71 | 0.0 | 0.0 | 0.00 | 0.11 | 0.00 | 91 | 1002.6 |
| 20260904221343 | 43 | 71 | 0.0 | 0.0 | 0.00 | 0.11 | 0.00 | 91 | 1002.6 |
| 20260904220843 | 43 | 71 | 0.0 | 0.0 | 0.00 | 0.11 | 0.00 | 91 | 1002.6 |
| 20260904220544 | 43 | 71 | 0.0 | 0.0 | 0.00 | 0.11 | 0.00 | 91 | 1002.6 |
| 20260904220343 | 43 | 71 | 0.0 | 0.0 | 0.00 | 0.11 | 0.00 | 91 | 1002.6 |
| 20260904215843 | 43 | 71 | 0.0 | 0.0 | 0.00 | 0.11 | 0.00 | 90 | 1002.5 |
| 20260904215444 | 43 | 71 | 0.0 | 0.0 | 0.00 | 0.11 | 0.00 | 90 | 1002.5 |
| 20260904215343 | 43 | 71 | 0.0 | 0.0 | 0.00 | 0.11 | 0.00 | 90 | 1002.6 |
| 20260904214843 | 43 | 71 | 0.0 | 0.0 | 0.00 | 0.11 | 0.11 | 90 | 1002.5 |
| 20260904214343 | 43 | 71 | 0.0 | 0.0 | 0.00 | 0.11 | 0.11 | 90 | 1002.5 |
| 20260904213843 | 43 | 71 | 0.0 | 0.0 | 0.00 | 0.11 | 0.11 | 89 | 1002.5 |
| 20260904213343 | 43 | 71 | 0.0 | 0.0 | 0.00 | 0.11 | 0.11 | 89 | 1002.5 |
| 20260904213244 | 43 | 71 | 0.0 | 0.0 | 0.00 | 0.11 | 0.11 | 89 | 1002.5 |
| 20260904212843 | 43 | 71 | 0.0 | 0.0 | 0.00 | 0.11 | 0.11 | 89 | 1002.5 |
| 20260904212343 | 43 | 71 | 0.0 | 0.0 | 0.00 | 0.11 | 0.11 | 89 | 1002.5 |
| 20260904212144 | 43 | 71 | 0.0 | 0.0 | 0.00 | 0.11 | 0.11 | 89 | 1002.5 |
| 20260904211843 | 43 | 71 | 0.0 | 0.0 | 0.00 | 0.11 | 0.11 | 89 | 1002.5 |
| 20260904211343 | 43 | 71 | 0.0 | 0.0 | 0.00 | 0.11 | 0.11 | 89 | 1002.5 |
| 20260904211045 | 43 | 71 | 0.0 | 0.0 | 0.00 | 0.11 | 0.11 | 89 | 1002.5 |
| 20260904210843 | 43 | 71 | 0.0 | 0.0 | 0.00 | 0.11 | 0.11 | 89 | 1002.4 |
| 20260904210343 | 44 | 71 | 0.0 | 0.0 | 0.00 | 0.11 | 0.11 | 89 | 1002.5 |
| 20260904205945 | 44 | 71 | 0.0 | 0.0 | 0.00 | 0.11 | 0.11 | 89 | 1002.4 |
| 20260904205843 | 44 | 71 | 0.0 | 0.0 | 0.00 | 0.11 | 0.11 | 89 | 1002.4 |
| 20260904205343 | 44 | 71 | 0.0 | 0.0 | 0.00 | 0.11 | 0.11 | 89 | 1002.4 |
| 20260904204843 | 44 | 71 | 0.0 | 0.0 | 0.00 | 0.11 | 0.11 | 89 | 1002.5 |
| 20260904204343 | 44 | 71 | 0.0 | 0.0 | 0.00 | 0.11 | 0.11 | 89 | 1002.5 |
| 20260904203843 | 44 | 71 | 0.0 | 0.0 | 0.00 | 0.11 | 0.11 | 88 | 1002.5 |
| 20260904203745 | 44 | 71 | 0.0 | 0.0 | 0.00 | 0.11 | 0.11 | 88 | 1002.5 |
| 20260904203343 | 44 | 71 | 0.0 | 0.0 | 0.00 | 0.11 | 0.11 | 88 | 1002.4 |
| 20260904202843 | 44 | 71 | 0.0 | 0.0 | 0.00 | 0.11 | 0.11 | 88 | 1002.5 |
| 20260904202645 | 44 | 71 | 0.0 | 0.0 | 0.00 | 0.11 | 0.11 | 88 | 1002.5 |
| 20260904202343 | 44 | 71 | 0.0 | 0.0 | 0.00 | 0.11 | 0.11 | 88 | 1002.5 |
| 20260904201843 | 44 | 71 | 0.0 | 0.0 | 0.00 | 0.11 | 0.11 | 88 | 1002.5 |
| 20260904201545 | 44 | 71 | 0.0 | 0.0 | 0.00 | 0.11 | 0.11 | 88 | 1002.5 |
| 20260904201343 | 44 | 71 | 0.0 | 0.0 | 0.00 | 0.11 | 0.11 | 88 | 1002.5 |
| 20260904200843 | 44 | 71 | 0.0 | 0.0 | 0.00 | 0.11 | 0.11 | 88 | 1002.5 |
| 20260904200445 | 44 | 71 | 0.0 | 0.0 | 0.00 | 0.11 | 0.11 | 88 | 1002.5 |
| 20260904200343 | 44 | 71 | 0.0 | 0.0 | 0.00 | 0.11 | 0.11 | 88 | 1002.5 |
| 20260904195843 | 44 | 71 | 0.0 | 0.0 | 0.00 | 0.11 | 0.11 | 88 | 1002.5 |
| 20260904195343 | 44 | 71 | 0.0 | 0.0 | 0.00 | 0.11 | 0.11 | 87 | 1002.5 |
| 20260904194843 | 44 | 71 | 0.0 | 0.0 | 0.00 | 0.11 | 0.11 | 87 | 1002.6 |
| 20260904194344 | 44 | 71 | 0.0 | 0.0 | 0.00 | 0.11 | 0.11 | 87 | 1002.5 |
| 20260904194245 | 44 | 71 | 0.0 | 0.0 | 0.00 | 0.11 | 0.11 | 87 | 1002.6 |
| 20260904193844 | 44 | 71 | 0.0 | 0.0 | 0.00 | 0.11 | 0.11 | 87 | 1002.6 |
| 20260904193344 | 44 | 71 | 0.0 | 0.0 | 0.00 | 0.11 | 0.11 | 87 | 1002.5 |
| 20260904193145 | 44 | 71 | 0.0 | 0.0 | 0.00 | 0.11 | 0.11 | 87 | 1002.5 |
| 20260904192844 | 44 | 71 | 0.0 | 0.0 | 0.00 | 0.11 | 0.11 | 87 | 1002.5 |
| 20260904192344 | 44 | 71 | 0.0 | 0.0 | 0.00 | 0.11 | 0.11 | 87 | 1002.5 |
| 20260904192046 | 44 | 71 | 0.0 | 0.0 | 0.00 | 0.11 | 0.11 | 87 | 1002.5 |
| 20260904191844 | 44 | 71 | 0.0 | 0.0 | 0.00 | 0.11 | 0.11 | 87 | 1002.5 |
| 20260904191344 | 44 | 71 | 0.0 | 0.0 | 0.00 | 0.11 | 0.11 | 87 | 1002.4 |
| 20260904190945 | 44 | 71 | 0.0 | 0.0 | 0.00 | 0.11 | 0.11 | 87 | 1002.4 |
| 20260904190844 | 44 | 71 | 0.0 | 0.0 | 0.00 | 0.11 | 0.11 | 87 | 1002.4 |
| 20260904190344 | 44 | 71 | 0.0 | 0.0 | 0.00 | 0.11 | 0.11 | 86 | 1002.4 |
| 20260904185844 | 44 | 71 | 0.0 | 0.0 | 0.00 | 0.11 | 0.11 | 86 | 1002.4 |
| 20260904185344 | 44 | 71 | 0.0 | 0.0 | 0.00 | 0.11 | 0.11 | 86 | 1002.5 |
| 20260904184844 | 44 | 71 | 0.0 | 0.0 | 0.00 | 0.11 | 0.11 | 86 | 1002.5 |
| 20260904184745 | 45 | 71 | 0.0 | 0.0 | 0.00 | 0.11 | 0.11 | 86 | 1002.4 |
| 20260904184344 | 45 | 71 | 0.0 | 0.0 | 0.00 | 0.11 | 0.11 | 85 | 1002.4 |
| 20260904183844 | 45 | 71 | 0.0 | 0.0 | 0.00 | 0.11 | 0.11 | 85 | 1002.4 |
| 20260904183645 | 45 | 71 | 0.0 | 0.0 | 0.00 | 0.11 | 0.11 | 85 | 1002.4 |
| 20260904183344 | 45 | 71 | 0.0 | 0.0 | 0.00 | 0.11 | 0.11 | 85 | 1002.4 |
| 20260904182844 | 45 | 71 | 0.0 | 0.0 | 0.00 | 0.11 | 0.11 | 84 | 1002.3 |
| 20260904182545 | 45 | 71 | 0.0 | 0.0 | 0.00 | 0.11 | 0.11 | 84 | 1002.3 |
| 20260904182344 | 45 | 71 | 0.0 | 0.0 | 0.00 | 0.11 | 0.11 | 84 | 1002.3 |
| 20260904181844 | 45 | 71 | 0.0 | 0.0 | 0.00 | 0.11 | 0.11 | 84 | 1002.3 |
| 20260904181445 | 45 | 71 | 0.0 | 0.0 | 0.00 | 0.11 | 0.11 | 84 | 1002.4 |
| 20260904181344 | 46 | 71 | 0.0 | 0.0 | 0.00 | 0.11 | 0.11 | 84 | 1002.4 |
| 20260904180844 | 46 | 71 | 0.0 | 0.0 | 0.00 | 0.11 | 0.11 | 84 | 1002.4 |
| 20260904180344 | 46 | 71 | 0.0 | 0.0 | 0.00 | 0.11 | 0.11 | 84 | 1002.3 |
| 20260904175844 | 46 | 71 | 0.0 | 0.0 | 0.00 | 0.11 | 0.11 | 84 | 1002.3 |
| 20260904175344 | 46 | 71 | 0.0 | 0.0 | 0.00 | 0.11 | 0.11 | 83 | 1002.4 |
| 20260904175245 | 46 | 71 | 0.0 | 0.0 | 0.00 | 0.11 | 0.11 | 83 | 1002.4 |
| 20260904174844 | 46 | 71 | 0.0 | 0.0 | 0.00 | 0.11 | 0.11 | 83 | 1002.4 |
| 20260904174344 | 46 | 71 | 0.0 | 0.0 | 0.00 | 0.11 | 0.11 | 83 | 1002.5 |
| 20260904174145 | 46 | 71 | 0.0 | 0.0 | 0.00 | 0.11 | 0.11 | 82 | 1002.4 |
| 20260904173844 | 46 | 71 | 0.0 | 0.0 | 0.00 | 0.11 | 0.11 | 82 | 1002.4 |
| 20260904173344 | 47 | 71 | 0.0 | 0.0 | 0.00 | 0.11 | 0.11 | 82 | 1002.5 |
| 20260904173045 | 47 | 71 | 0.0 | 0.0 | 0.00 | 0.11 | 0.11 | 82 | 1002.5 |
| 20260904172844 | 47 | 71 | 0.0 | 0.0 | 0.00 | 0.11 | 0.11 | 82 | 1002.4 |
| 20260904172344 | 47 | 71 | 0.0 | 0.0 | 0.00 | 0.11 | 0.11 | 82 | 1002.4 |
| 20260904171945 | 47 | 71 | 0.0 | 0.0 | 0.00 | 0.11 | 0.11 | 81 | 1002.5 |
| 20260904171844 | 47 | 71 | 0.0 | 0.0 | 0.00 | 0.11 | 0.11 | 81 | 1002.4 |
| 20260904171344 | 47 | 71 | 0.0 | 0.0 | 0.00 | 0.11 | 0.11 | 81 | 1002.4 |
| 20260904170844 | 47 | 71 | 0.0 | 0.0 | 0.00 | 0.11 | 0.11 | 81 | 1002.4 |
| 20260904170344 | 47 | 71 | 0.0 | 0.0 | 0.00 | 0.11 | 0.11 | 81 | 1002.4 |
| 20260904165844 | 47 | 71 | 0.0 | 0.0 | 0.00 | 0.11 | 0.11 | 80 | 1002.4 |
| 20260904165745 | 47 | 71 | 0.0 | 0.0 | 0.00 | 0.11 | 0.11 | 81 | 1002.4 |
| 20260904165344 | 47 | 71 | 0.0 | 0.0 | 0.00 | 0.11 | 0.11 | 80 | 1002.4 |
| 20260904164844 | 47 | 71 | 0.0 | 2.0 | 0.00 | 0.11 | 0.11 | 80 | 1002.3 |
| 20260904164645 | 47 | 71 | 0.0 | 2.0 | 0.00 | 0.11 | 0.11 | 80 | 1002.3 |
| 20260904164344 | 48 | 108 | 2.0 | 2.0 | 0.00 | 0.11 | 0.11 | 80 | 1002.3 |
| 20260904163844 | 48 | 136 | 1.0 | 1.0 | 0.00 | 0.11 | 0.11 | 80 | 1002.3 |
| 20260904163545 | 48 | 64 | 0.0 | 2.0 | 0.00 | 0.11 | 0.11 | 80 | 1002.3 |
| 20260904163344 | 48 | 115 | 0.0 | 2.0 | 0.00 | 0.11 | 0.11 | 80 | 1002.3 |
| 20260904162844 | 48 | 106 | 0.0 | 0.0 | 0.00 | 0.11 | 0.11 | 80 | 1002.3 |
| 20260904162445 | 48 | 106 | 0.0 | 0.0 | 0.00 | 0.11 | 0.11 | 80 | 1002.3 |
| 20260904162344 | 48 | 106 | 0.0 | 0.0 | 0.00 | 0.11 | 0.11 | 80 | 1002.4 |
| 20260904161844 | 48 | 106 | 0.0 | 0.0 | 0.00 | 0.11 | 0.11 | 80 | 1002.4 |
| 20260904161344 | 48 | 106 | 0.0 | 0.0 | 0.00 | 0.11 | 0.11 | 80 | 1002.3 |
| 20260904160844 | 48 | 106 | 0.0 | 3.0 | 0.00 | 0.11 | 0.11 | 80 | 1002.4 |
| 20260904160344 | 48 | 118 | 0.0 | 1.0 | 0.00 | 0.11 | 0.11 | 80 | 1002.3 |
| 20260904160245 | 48 | 172 | 0.0 | 2.0 | 0.00 | 0.11 | 0.11 | 80 | 1002.3 |
| 20260904155844 | 48 | 146 | 1.0 | 3.0 | 0.00 | 0.11 | 0.11 | 80 | 1002.3 |
| 20260904155346 | 48 | 91 | 1.0 | 3.0 | 0.00 | 0.11 | 0.11 | 80 | 1002.3 |
| 20260904155145 | 48 | 104 | 1.0 | 3.0 | 0.00 | 0.11 | 0.11 | 80 | 1002.3 |
| 20260904154844 | 48 | 126 | 0.0 | 3.0 | 0.00 | 0.11 | 0.11 | 80 | 1002.2 |
| 20260904154344 | 48 | 111 | 0.0 | 3.0 | 0.00 | 0.11 | 0.11 | 81 | 1002.3 |
| 20260904154045 | 48 | 125 | 0.0 | 2.0 | 0.00 | 0.11 | 0.11 | 81 | 1002.3 |
| 20260904153844 | 48 | 125 | 0.0 | 2.0 | 0.00 | 0.11 | 0.11 | 81 | 1002.3 |
| 20260904153344 | 48 | 81 | 0.0 | 0.0 | 0.00 | 0.11 | 0.11 | 81 | 1002.3 |
| 20260904152945 | 48 | 81 | 0.0 | 2.0 | 0.00 | 0.11 | 0.11 | 81 | 1002.3 |
| 20260904152844 | 48 | 81 | 0.0 | 2.0 | 0.00 | 0.11 | 0.11 | 81 | 1002.3 |
| 20260904152344 | 47 | 98 | 1.0 | 2.0 | 0.00 | 0.11 | 0.11 | 81 | 1002.3 |
| 20260904151844 | 47 | 77 | 0.0 | 1.0 | 0.00 | 0.11 | 0.11 | 81 | 1002.3 |
| 20260904151344 | 47 | 153 | 1.0 | 3.0 | 0.00 | 0.11 | 0.11 | 81 | 1002.4 |
| 20260904150844 | 47 | 104 | 2.0 | 2.0 | 0.00 | 0.11 | 0.11 | 81 | 1002.4 |
| 20260904150745 | 47 | 120 | 1.0 | 2.0 | 0.00 | 0.11 | 0.11 | 81 | 1002.4 |
| 20260904150344 | 47 | 45 | 0.0 | 2.0 | 0.00 | 0.11 | 0.11 | 81 | 1002.4 |
| 20260904145844 | 47 | 43 | 0.0 | 3.0 | 0.00 | 0.11 | 0.11 | 81 | 1002.4 |
| 20260904145645 | 47 | 149 | 1.0 | 3.0 | 0.00 | 0.11 | 0.11 | 81 | 1002.4 |
| 20260904145344 | 47 | 122 | 1.0 | 3.0 | 0.00 | 0.11 | 0.11 | 81 | 1002.4 |
| 20260904144844 | 47 | 129 | 1.0 | 4.0 | 0.00 | 0.11 | 0.11 | 81 | 1002.5 |
| 20260904144545 | 47 | 109 | 4.0 | 5.0 | 0.00 | 0.11 | 0.11 | 81 | 1002.4 |
| 20260904144344 | 47 | 150 | 3.0 | 5.0 | 0.00 | 0.11 | 0.11 | 81 | 1002.4 |
| 20260904143844 | 47 | 160 | 2.0 | 4.0 | 0.00 | 0.11 | 0.11 | 81 | 1002.5 |
| 20260904143445 | 47 | 125 | 1.0 | 5.0 | 0.00 | 0.11 | 0.11 | 81 | 1002.5 |
| 20260904143344 | 47 | 111 | 2.0 | 5.0 | 0.00 | 0.11 | 0.11 | 81 | 1002.5 |
| 20260904142844 | 47 | 167 | 0.0 | 4.0 | 0.00 | 0.11 | 0.11 | 81 | 1002.5 |
| 20260904142344 | 47 | 106 | 2.0 | 4.0 | 0.00 | 0.11 | 0.11 | 81 | 1002.6 |
| 20260904141844 | 47 | 303 | 0.0 | 0.0 | 0.00 | 0.11 | 0.11 | 81 | 1002.6 |
| 20260904141344 | 48 | 303 | 0.0 | 0.0 | 0.00 | 0.11 | 0.11 | 80 | 1002.6 |
| 20260904141245 | 48 | 303 | 0.0 | 0.0 | 0.00 | 0.11 | 0.11 | 80 | 1002.6 |
| 20260904140844 | 48 | 303 | 0.0 | 0.0 | 0.00 | 0.11 | 0.11 | 80 | 1002.6 |
| 20260904140344 | 48 | 303 | 0.0 | 1.0 | 0.00 | 0.11 | 0.11 | 80 | 1002.6 |
| 20260904140145 | 48 | 45 | 0.0 | 1.0 | 0.00 | 0.11 | 0.11 | 80 | 1002.6 |
| 20260904135844 | 48 | 305 | 0.0 | 1.0 | 0.00 | 0.11 | 0.11 | 79 | 1002.6 |
| 20260904135344 | 48 | 112 | 0.0 | 0.0 | 0.00 | 0.11 | 0.11 | 79 | 1002.6 |
| 20260904135045 | 49 | 112 | 0.0 | 0.0 | 0.00 | 0.11 | 0.11 | 79 | 1002.6 |
| 20260904134844 | 49 | 112 | 0.0 | 1.0 | 0.00 | 0.11 | 0.11 | 78 | 1002.7 |
| 20260904134344 | 49 | 109 | 1.0 | 1.0 | 0.00 | 0.11 | 0.11 | 78 | 1002.7 |
| 20260904133945 | 49 | 135 | 0.0 | 2.0 | 0.00 | 0.11 | 0.11 | 78 | 1002.7 |
| 20260904133844 | 49 | 135 | 0.0 | 2.0 | 0.00 | 0.11 | 0.11 | 77 | 1002.7 |
| 20260904133344 | 49 | 129 | 0.0 | 5.0 | 0.00 | 0.11 | 0.11 | 77 | 1002.8 |
| 20260904132844 | 49 | 74 | 0.0 | 6.0 | 0.00 | 0.11 | 0.11 | 76 | 1002.7 |
| 20260904132344 | 49 | 85 | 2.0 | 6.0 | 0.00 | 0.11 | 0.11 | 77 | 1002.7 |
| 20260904131844 | 49 | 113 | 2.0 | 5.0 | 0.00 | 0.11 | 0.11 | 78 | 1002.8 |
| 20260904131745 | 49 | 122 | 3.0 | 5.0 | 0.00 | 0.11 | 0.11 | 78 | 1002.8 |
| 20260904131344 | 49 | 137 | 3.0 | 5.0 | 0.00 | 0.11 | 0.11 | 78 | 1002.8 |
| 20260904130844 | 49 | 129 | 3.0 | 5.0 | 0.00 | 0.11 | 0.11 | 78 | 1002.8 |
| 20260904130645 | 49 | 106 | 1.0 | 5.0 | 0.00 | 0.11 | 0.11 | 78 | 1002.8 |
| 20260904130344 | 49 | 102 | 1.0 | 5.0 | 0.00 | 0.11 | 0.11 | 78 | 1002.8 |